Weather History for KRKS - March, 2013

Change the Weather History Date:

Saturday, March 9, 2013

  Actual Average Record
Temperature  
Mean Temperature 32 °F 31 °F  
Max Temperature 38 °F 41 °F 63 °F (1972)
Min Temperature 25 °F 22 °F -4 °F (1969)
Degree Days  
Heating Degree Days 33 34  
Month to date heating degree days 273 316  
Since 1 July heating degree days 5754 6168  
Cooling Degree Days 0 0  
Month to date cooling degree days 0 0  
Year to date cooling degree days 0 0  
Moisture  
Dew Point 24 °F    
Average Humidity 70    
Maximum Humidity 92    
Minimum Humidity 47    
Precipitation  
Precipitation T in 0.02 in 0.55 in (1968)
Month to date precipitation T 0.16  
Year to date precipitation T 1.09  
Sea Level Pressure  
Sea Level Pressure 29.86 in    
Wind  
Wind Speed 16 mph (NE)    
Max Wind Speed 30 mph    
Max Gust Speed 37 mph    
Visibility 7 miles    
Events Fog , Snow    
T = Trace of Precipitation, MM = Missing Value Source: NWS Daily Summary

Daily Weather History Graph

Daily Weather History Graph

Search for Another Location

Airport or City:

Trip Planner

Search our weather history database for the weather conditions in past years. The results will help you decide how hot, cold, wet, or windy it might be!

Date:

Astronomy

Mar. 09, 2013 Rise Set
Actual Time 6:37 AM MST 6:16 PM MST
Civil Twilight 6:09 AM MST 6:44 PM MST
Nautical Twilight 5:37 AM MST 7:16 PM MST
Astronomical Twilight 5:05 AM MST 7:48 PM MST
Moon 5:04 AM MST (3/9) 4:21 PM MST (3/9)
Length of Visible Light 12h 34m
Length of Day
11h 38m
Waning Crescent, 5% of the Moon is Illuminated
Mar 9
Waning Crescent
Mar 11
New
Mar 19
First Quarter
Mar 27
Full
Apr 2
Last Quarter

Hourly Weather History & Observations

Time (MST) Temp. Windchill Dew Point Humidity Pressure Visibility Wind Dir Wind Speed Gust Speed Precip Events Conditions
12:16 AM 33.8 °F 25.3 °F 30.2 °F 87% 29.71 in 1.0 mi ENE 11.5 mph - 0.00 in Snow Light Snow
12:27 AM 32.0 °F 22.1 °F 30.2 °F 93% 29.71 in 1.5 mi NE 13.8 mph - 0.00 in Snow Light Snow
12:43 AM 32.0 °F 22.5 °F 30.2 °F 93% 29.71 in 0.8 mi NE 12.7 mph - 0.00 in Snow Light Snow
12:54 AM 32.0 °F 21.6 °F 30.9 °F 96% 29.65 in 0.5 mi NE 15.0 mph - 0.00 in Fog , Snow Light Snow
1:06 AM 32.0 °F 21.2 °F 30.2 °F 93% 29.71 in 1.2 mi NE 16.1 mph 23.0 mph 0.00 in Snow Light Snow
1:22 AM 32.0 °F 21.2 °F 30.2 °F 93% 29.71 in 2.5 mi NE 16.1 mph 24.2 mph 0.00 in Snow Light Snow
1:31 AM 32.0 °F 20.8 °F 30.2 °F 93% 29.72 in 2.5 mi NE 17.3 mph - 0.00 in Snow Light Snow
1:49 AM 30.2 °F 17.8 °F 28.4 °F 93% 29.71 in 3.0 mi NE 19.6 mph 29.9 mph 0.00 in Snow Light Snow
1:54 AM 30.9 °F 18.4 °F 28.9 °F 92% 29.66 in 2.5 mi NE 20.7 mph 29.9 mph 0.00 in Snow Light Snow
2:33 AM 30.2 °F 17.8 °F 28.4 °F 93% 29.70 in 1.8 mi NE 19.6 mph 27.6 mph 0.00 in Snow Light Snow
2:43 AM 30.2 °F 17.4 °F 28.4 °F 93% 29.70 in 1.8 mi NE 20.7 mph 27.6 mph 0.00 in Snow Light Snow
2:54 AM 30.0 °F 17.2 °F 27.0 °F 88% 29.65 in 2.0 mi ENE 20.7 mph - 0.00 in Snow Light Snow
3:24 AM 30.2 °F 18.5 °F 26.6 °F 86% 29.70 in 4.0 mi NE 17.3 mph 26.5 mph 0.00 in Snow Light Snow
3:54 AM 28.9 °F 14.8 °F 26.1 °F 89% 29.67 in 4.0 mi NE 24.2 mph 31.1 mph 0.00 in Snow Light Snow
4:54 AM 28.9 °F 15.4 °F 25.0 °F 85% 29.72 in 5.0 mi NE 21.9 mph 31.1 mph 0.00 in Snow Light Snow
5:54 AM 28.0 °F 14.6 °F 24.1 °F 85% 29.76 in 10.0 mi ENE 20.7 mph 29.9 mph 0.00 in   Overcast
6:16 AM 28.4 °F 16.6 °F 24.8 °F 86% 29.76 in 10.0 mi NE 16.1 mph 26.5 mph N/A   Overcast
6:54 AM 28.9 °F 17.7 °F 24.1 °F 82% 29.80 in 10.0 mi NE 15.0 mph 24.2 mph N/A   Overcast
7:54 AM 28.9 °F 18.2 °F 24.1 °F 82% 29.82 in 10.0 mi NE 13.8 mph 19.6 mph N/A   Overcast
8:21 AM 28.4 °F 16.2 °F 24.8 °F 86% 29.82 in 10.0 mi ENE 17.3 mph - N/A   Overcast
8:54 AM 30.0 °F 18.7 °F 24.1 °F 79% 29.84 in 10.0 mi NE 16.1 mph 26.5 mph N/A   Overcast
9:05 AM 30.2 °F 18.5 °F 24.8 °F 80% 29.83 in 10.0 mi NE 17.3 mph 24.2 mph N/A   Overcast
9:54 AM 32.0 °F 20.5 °F 25.0 °F 75% 29.85 in 10.0 mi NE 18.4 mph 23.0 mph N/A   Overcast
10:54 AM 34.0 °F 21.0 °F 25.0 °F 70% 29.88 in 10.0 mi NE 26.5 mph 32.2 mph N/A   Overcast
11:10 AM 35.6 °F 24.8 °F 26.6 °F 70% 29.88 in 10.0 mi NE 19.6 mph 26.5 mph N/A   Overcast
11:54 AM 35.1 °F 22.2 °F 24.1 °F 64% 29.91 in 10.0 mi NE 27.6 mph 35.7 mph N/A   Overcast
12:54 PM 35.1 °F 23.5 °F 21.9 °F 59% 29.91 in 10.0 mi NE 21.9 mph 33.4 mph N/A   Overcast
1:54 PM 35.1 °F 23.5 °F 21.9 °F 59% 29.92 in 10.0 mi NE 21.9 mph 32.2 mph N/A   Overcast
2:54 PM 34.0 °F 21.3 °F 19.9 °F 56% 29.97 in 10.0 mi ENE 25.3 mph 33.4 mph N/A   Overcast
3:54 PM 34.0 °F 21.8 °F 21.0 °F 59% 30.01 in 10.0 mi ENE 23.0 mph 29.9 mph N/A   Overcast
4:54 PM 33.1 °F 23.9 °F 19.0 °F 56% 30.04 in 10.0 mi ENE 12.7 mph 18.4 mph N/A   Overcast
5:54 PM 33.1 °F 28.7 °F 16.0 °F 50% 30.08 in 10.0 mi ENE 4.6 mph - N/A   Overcast
6:54 PM 30.9 °F 20.7 °F 16.0 °F 54% 30.12 in 10.0 mi NE 13.8 mph 27.6 mph N/A   Mostly Cloudy
7:54 PM 28.0 °F 21.7 °F 15.1 °F 58% 30.17 in 10.0 mi Variable 5.8 mph - N/A   Clear
8:54 PM 27.0 °F 17.3 °F 15.1 °F 61% 30.20 in 10.0 mi ENE 10.4 mph - N/A   Scattered Clouds
9:54 PM 27.0 °F 20.5 °F 15.1 °F 61% 30.22 in 10.0 mi ENE 5.8 mph - N/A   Overcast
10:54 PM 27.0 °F 20.5 °F 12.9 °F 56% 30.22 in 10.0 mi NE 5.8 mph - N/A   Mostly Cloudy
11:54 PM 26.1 °F - 12.9 °F 58% 30.22 in 10.0 mi Calm Calm - N/A   Clear